| Date | Time | Temp. (oF) | Dew Point (oF) | Rel. Hum. (%) | Press. (in.) | Wind Dir. | Wind Speed (mph) | Hourly Rainfall (in.) |
|
|---|---|---|---|---|---|---|---|---|---|
| 1 | 03/28 | 00:00 | 37 | 27 | 68 | 30.16 | WNW | 6 | 0.00 |
| 2 | 03/27 | 23:00 | 38 | 28 | 69 | 30.15 | NW | 7 | 0.00 |
| 3 | 03/27 | 22:00 | 39 | 29 | 69 | 30.14 | W | 10 | 0.00 |
| 4 | 03/27 | 21:00 | 40 | 30 | 68 | 30.14 | WNW | 9 | 0.00 |
| 5 | 03/27 | 20:00 | 40 | 30 | 68 | 30.12 | NW | 5 | 0.00 |
| 6 | 03/27 | 19:00 | 41 | 30 | 67 | 30.10 | NW | 7 | 0.00 |
| 7 | 03/27 | 18:00 | 41 | 30 | 65 | 30.09 | WNW | 6 | 0.00 |
| 8 | 03/27 | 17:00 | 42 | 30 | 63 | 30.07 | NW | 9 | 0.00 |
| 9 | 03/27 | 16:00 | 43 | 31 | 63 | 30.04 | WNW | 7 | 0.00 |
| 10 | 03/27 | 15:00 | 44 | 32 | 63 | 30.04 | NW | 11 | 0.00 |
| 11 | 03/27 | 14:00 | 43 | 32 | 65 | 30.05 | NW | 7 | 0.00 |
| 12 | 03/27 | 13:00 | 43 | 33 | 69 | 30.05 | W | 14 | 0.00 |
| 13 | 03/27 | 12:00 | 43 | 33 | 69 | 30.06 | NW | 16 | 0.00 |
| 14 | 03/27 | 11:00 | 42 | 33 | 72 | 30.06 | NW | 14 | 0.00 |
| 15 | 03/27 | 10:00 | 42 | 34 | 75 | 30.06 | NW | 7 | 0.00 |
| 16 | 03/27 | 09:00 | 41 | 34 | 78 | 30.05 | NW | 16 | 0.00 |
| 17 | 03/27 | 08:00 | 39 | 33 | 82 | 30.05 | NW | 10 | 0.00 |
| 18 | 03/27 | 07:00 | 39 | 34 | 83 | 30.03 | NW | 10 | 0.00 |
| 19 | 03/27 | 06:00 | 39 | 34 | 85 | 30.01 | NW | 4 | 0.00 |
| 20 | 03/27 | 05:00 | 40 | 37 | 89 | 29.98 | WNW | 4 | 0.00 |
| 21 | 03/27 | 04:00 | 40 | 37 | 90 | 29.96 | WNW | 7 | 0.00 |
| 22 | 03/27 | 03:00 | 42 | 41 | 100 | 29.93 | WNW | 8 | 0.00 |
| 23 | 03/27 | 02:00 | 44 | 44 | 100 | 29.93 | WNW | 1 | 0.00 |
| 24 | 03/27 | 01:00 | 43 | 42 | 100 | 29.93 | WNW | 2 | 0.00 |